Overview Statistics Trail Chart Weather Telemetry Raw packets
 

This is the latest recevied weather packets stored in our database for station/object KK7MLS-13. If no packets are shown the sender has not sent any weather packets the latest 10 day(s).

<< 8 9 10 11 12 13 14 >>
Time Temp. Humidity Pressure Rain* Wind** Luminosity Snow
1788620801 12.78° C 95% 1017.9 hPa 0 mm - 21 W/m² -
1788620499 12.78° C 95% 1017.8 hPa 0 mm - 22 W/m² -
1788620198 12.78° C 96% 1017.9 hPa 0 mm - 22 W/m² -
1788619897 12.78° C 96% 1017.8 hPa 0 mm - 26 W/m² -
1788619592 12.78° C 96% 1017.7 hPa 0 mm - 27 W/m² -
1788619291 12.78° C 96% 1018 hPa 0 mm - 23 W/m² -
1788618995 12.78° C 96% 1018 hPa 0 mm - 21 W/m² -
1788618686 12.78° C 96% 1017.8 hPa 0 mm - 14 W/m² -
1788618384 12.78° C 96% 1017.9 hPa 0 mm - 12 W/m² -
1788618079 12.78° C 96% 1017.6 hPa 0 mm - 10 W/m² -
1788617779 12.78° C 96% 1017.5 hPa 0 mm - 10 W/m² -
1788617476 12.78° C 97% 1017.8 hPa 0 mm - 10 W/m² -
1788617176 12.78° C 97% 1017.5 hPa 0 mm - 9 W/m² -
1788616875 12.78° C 97% 1017.7 hPa 0 mm - 6 W/m² -
1788616570 12.78° C 97% 1017.7 hPa 0 mm - 5 W/m² -
1788616265 12.78° C 97% 1017.7 hPa 0 mm - 3 W/m² -
1788615960 12.78° C 96% 1017.6 hPa 0 mm - 2 W/m² -
1788615669 12.78° C 96% 1017.6 hPa 0 mm - 2 W/m² -
1788615355 12.78° C 96% 1017.5 hPa 0 mm - 1 W/m² -
1788615054 12.78° C 96% 1017.5 hPa 0 mm - 1 W/m² -
1788614754 12.78° C 96% 1017.5 hPa 0 mm - 0 W/m² -
1788614449 12.78° C 96% 1017.3 hPa 0 mm - 0 W/m² -
1788614144 12.78° C 96% 1017.4 hPa 0 mm - 0 W/m² -
1788613840 12.78° C 96% 1017.5 hPa 0 mm - 0 W/m² -
1788613538 12.78° C 96% 1017.5 hPa 0 mm - 0 W/m² -

* Rain latest hour (hover to see other rain measurements)
** Current wind speed in m/s (hover to see current wind gust speed)